Location: Pacheco
(37.9835°N, 122.0752°W)
Time: 11:26:28
(UTC+00:00)

Cosmos 921 Rocket - Pass Details

Date: 13 April 2024
Orbit: 567 x 626 km, 75.8° (Epoch: 24 May)

Event Time Altitude Azimuth Distance (km) Brightness Sun altitude
Exits shadow 12:19:56 21° 215° (SW) 1,312 4.2 -14.8°
Maximum altitude 12:22:33 57° 287° (WNW) 688 3.0 -14.3°
Drops below altitude 10° 12:26:47 10° 8° (N) 1,928 6.0 -13.6°
Sets 12:29:04 0° 12° (NNE) 2,845 7.0 -13.2°
